This is the latest recevied weather packets stored in our database for station/object OE6PWE-13. If no packets are shown the sender has not sent any weather packets the latest 10 day(s).
| Time | Temp. | Humidity | Pressure | Rain* | Wind** | Luminosity | Snow |
|---|---|---|---|---|---|---|---|
| 1777577421 | 7.22° C | 52% | 1028 hPa | 0 mm | - | - | - |
| 1777576513 | 8.33° C | 47% | 1028 hPa | 0 mm | - | - | - |
| 1777575621 | 8.89° C | 46% | 1028 hPa | 0 mm | - | - | - |
| 1777574714 | 9.44° C | 45% | 1028 hPa | 0 mm | - | - | - |
| 1777572913 | 10.56° C | 41% | 1027 hPa | 0 mm | - | - | - |
| 1777572020 | 12.22° C | 39% | 1027 hPa | 0 mm | - | - | - |
| 1777571113 | 12.78° C | 36% | 1026 hPa | 0 mm | - | - | - |
| 1777570221 | 13.33° C | 36% | 1026 hPa | 0 mm | - | - | - |
| 1777569314 | 13.89° C | 35% | 1026 hPa | 0 mm | - | - | - |
| 1777568421 | 14.44° C | 34% | 1026 hPa | 0 mm | - | - | - |
| 1777567514 | 14.44° C | 32% | 1026 hPa | 0 mm | - | - | - |
| 1777566620 | 15° C | 30% | 1026 hPa | 0 mm | - | - | - |
| 1777565713 | 15.56° C | 30% | 1026 hPa | 0 mm | - | - | - |
| 1777564820 | 15.56° C | 30% | 1026 hPa | 0 mm | - | - | - |
| 1777563914 | 15.56° C | 30% | 1026 hPa | 0 mm | - | - | - |
| 1777563021 | 16.11° C | 29% | 1026 hPa | 0 mm | - | - | - |
| 1777562113 | 16.67° C | 27% | 1025 hPa | 0 mm | - | - | - |
| 1777561220 | 16.67° C | 27% | 1026 hPa | 0 mm | - | - | - |
| 1777560313 | 16.11° C | 27% | 1026 hPa | 0 mm | - | - | - |
| 1777559421 | 16.11° C | 27% | 1026 hPa | 0 mm | - | - | - |
| 1777558513 | 16.67° C | 27% | 1026 hPa | 0 mm | - | - | - |
| 1777557620 | 16.11° C | 27% | 1026 hPa | 0 mm | - | - | - |
| 1777556713 | 16.67° C | 28% | 1026 hPa | 0 mm | - | - | - |
| 1777555821 | 16.67° C | 26% | 1026 hPa | 0 mm | - | - | - |
| 1777554913 | 16.11° C | 27% | 1026 hPa | 0 mm | - | - | - |
* Rain latest hour (hover to see other rain measurements)
** Current wind speed in m/s (hover to see current wind gust speed)